EW3182 Weather Reports


Display with metric or nautical units.
time (UTC)temp
F
wind
direction
speed
MPH
gust
MPH
rain 1hr
in
rain 24hr
in
rain mn
in
humidity
%
barometer
mb
20221002231857 80 91 0.0 1.0 0.00 0.00 0.00 34 1019.8
20221002231515 79 90 0.0 1.0 0.00 0.00 0.00 34 1019.2
20221002231351 80 91 0.0 1.0 0.00 0.00 0.00 32 1019.8
20221002230903 80 107 0.0 3.0 0.00 0.00 0.00 33 1019.8
20221002230353 81 105 1.0 3.0 0.00 0.00 0.00 32 1019.8
20221002230052 80 109 0.0 2.0 0.00 0.00 0.00 32 1019.2
20221002225846 81 218 0.0 2.0 0.00 0.00 0.00 32 1019.8
20221002225358 81 131 1.0 2.0 0.00 0.00 0.00 31 1019.8
20221002224849 81 100 0.0 3.0 0.00 0.00 0.00 32 1019.8
20221002224603 80 100 0.0 3.0 0.00 0.00 0.00 31 1019.2
20221002224358 81 44 0.0 3.0 0.00 0.00 0.00 31 1019.8
20221002223850 81 308 0.0 1.0 0.00 0.00 0.00 30 1019.8
20221002223344 81 156 0.0 2.0 0.00 0.00 0.00 30 1019.8
20221002223100 81 212 0.0 5.0 0.00 0.00 0.00 30 1019.2
20221002222857 82 82 0.0 5.0 0.00 0.00 0.00 31 1019.8
20221002222352 82 94 2.0 5.0 0.00 0.00 0.00 30 1019.7
20221002221845 82 122 1.0 5.0 0.00 0.00 0.00 30 1019.7
20221002221556 81 110 1.0 5.0 0.00 0.00 0.00 30 1019.0
20221002221356 82 145 0.0 5.0 0.00 0.00 0.00 30 1019.7
20221002220849 82 97 1.0 6.0 0.00 0.00 0.00 29 1019.6
20221002220402 82 134 2.0 6.0 0.00 0.00 0.00 28 1019.6
20221002220103 82 131 0.0 6.0 0.00 0.00 0.00 30 1018.9
20221002215852 83 111 2.0 6.0 0.00 0.00 0.00 28 1019.5
20221002215403 83 94 2.0 5.0 0.00 0.00 0.00 28 1019.5
20221002214856 84 339 0.0 2.0 0.00 0.00 0.00 29 1019.5
20221002214510 83 107 0.0 3.0 0.00 0.00 0.00 30 1018.8
20221002214409 84 19 0.0 4.0 0.00 0.00 0.00 30 1019.5
20221002213858 84 76 1.0 4.0 0.00 0.00 0.00 29 1019.5
20221002213350 84 220 0.0 6.0 0.00 0.00 0.00 29 1019.5
20221002213045 84 117 1.0 6.0 0.00 0.00 0.00 28 1018.9
20221002212844 84 85 1.0 6.0 0.00 0.00 0.00 27 1019.6
20221002212353 85 106 0.0 3.0 0.00 0.00 0.00 28 1019.6
20221002211847 84 160 0.0 5.0 0.00 0.00 0.00 28 1019.6
20221002211501 84 108 1.0 5.0 0.00 0.00 0.00 28 1019.0
20221002211401 84 85 1.0 4.0 0.00 0.00 0.00 29 1019.6
20221002210855 84 112 1.0 4.0 0.00 0.00 0.00 29 1019.5
20221002210349 85 191 1.0 4.0 0.00 0.00 0.00 28 1019.6
20221002210049 84 73 1.0 3.0 0.00 0.00 0.00 29 1019.0
20221002205842 85 86 0.0 2.0 0.00 0.00 0.00 30 1019.6
20221002205356 84 245 0.0 7.0 0.00 0.00 0.00 28 1019.5
20221002204851 84 252 1.0 7.0 0.00 0.00 0.00 30 1019.6
20221002204545 84 183 1.0 5.0 0.00 0.00 0.00 29 1019.0
20221002204343 84 111 1.0 5.0 0.00 0.00 0.00 29 1019.7
20221002203852 84 148 1.0 5.0 0.00 0.00 0.00 30 1019.7
20221002203405 84 91 1.0 4.0 0.00 0.00 0.00 29 1019.7
20221002203059 83 298 0.0 4.0 0.00 0.00 0.00 29 1019.1
20221002202856 84 82 1.0 4.0 0.00 0.00 0.00 29 1019.8
20221002202348 84 87 0.0 4.0 0.00 0.00 0.00 30 1019.7
20221002201843 83 139 0.0 5.0 0.00 0.00 0.00 30 1019.9
20221002201600 82 158 1.0 7.0 0.00 0.00 0.00 30 1019.3
20221002201357 83 109 1.0 9.0 0.00 0.00 0.00 31 1019.9
20221002200852 83 138 4.0 9.0 0.00 0.00 0.00 29 1020.1
20221002200345 83 87 1.0 6.0 0.00 0.00 0.00 29 1020.1
20221002200100 82 92 0.0 6.0 0.00 0.00 0.00 30 1019.4
20221002200005 82 101 1.0 6.0 0.00 0.00 0.00 30 1019.5
20221002195859 83 90 2.0 6.0 0.00 0.00 0.00 31 1020.2
20221002195354 83 198 2.0 5.0 0.00 0.00 0.00 30 1020.3
20221002194902 83 107 1.0 3.0 0.00 0.00 0.00 30 1020.4
20221002194557 82 280 0.0 3.0 0.00 0.00 0.00 31 1019.8
20221002194355 83 158 1.0 4.0 0.00 0.00 0.00 30 1020.5
20221002193848 83 99 1.0 4.0 0.00 0.00 0.00 30 1020.6
20221002193341 83 146 2.0 5.0 0.00 0.00 0.00 30 1020.6
20221002193056 82 85 2.0 6.0 0.00 0.00 0.00 31 1020.0
20221002192855 82 132 2.0 6.0 0.00 0.00 0.00 31 1020.7
20221002192348 83 90 1.0 4.0 0.00 0.00 0.00 32 1020.8
20221002191843 82 111 1.0 5.0 0.00 0.00 0.00 30 1020.8
20221002191556 82 74 1.0 5.0 0.00 0.00 0.00 31 1020.3
20221002191355 83 118 1.0 4.0 0.00 0.00 0.00 30 1020.9
20221002190851 82 101 0.0 5.0 0.00 0.00 0.00 31 1020.9
20221002190400 83 87 2.0 5.0 0.00 0.00 0.00 30 1021.1
20221002190052 82 131 1.0 4.0 0.00 0.00 0.00 31 1020.6
20221002185851 83 123 0.0 5.0 0.00 0.00 0.00 30 1021.1
20221002185405 82 149 0.0 5.0 0.00 0.00 0.00 32 1021.2
20221002184914 82 144 1.0 5.0 0.00 0.00 0.00 32 1021.4
20221002184550 82 128 0.0 5.0 0.00 0.00 0.00 31 1020.8
20221002184348 82 141 2.0 5.0 0.00 0.00 0.00 32 1021.4
20221002183859 82 278 0.0 6.0 0.00 0.00 0.00 31 1021.5
20221002183351 82 160 3.0 6.0 0.00 0.00 0.00 31 1021.6
20221002183044 81 105 0.0 4.0 0.00 0.00 0.00 32 1021.0
20221002182843 82 91 0.0 5.0 0.00 0.00 0.00 32 1021.7
20221002182357 82 117 1.0 5.0 0.00 0.00 0.00 31 1021.7
20221002181844 82 120 1.0 4.0 0.00 0.00 0.00 31 1021.8
20221002181601 81 228 0.0 2.0 0.00 0.00 0.00 31 1021.3
20221002181358 82 220 0.0 2.0 0.00 0.00 0.00 33 1021.9
20221002180851 81 225 0.0 4.0 0.00 0.00 0.00 33 1022.0
20221002180344 81 266 1.0 4.0 0.00 0.00 0.00 32 1022.1
20221002180059 81 225 1.0 4.0 0.00 0.00 0.00 33 1021.5
20221002175858 82 105 1.0 4.0 0.00 0.00 0.00 32 1022.1
20221002175350 81 283 0.0 3.0 0.00 0.00 0.00 34 1022.2
20221002174845 81 256 1.0 3.0 0.00 0.00 0.00 32 1022.2
20221002174517 80 260 0.0 3.0 0.00 0.00 0.00 31 1021.7
20221002174353 81 213 1.0 3.0 0.00 0.00 0.00 33 1022.3
20221002173923 81 139 1.0 3.0 0.00 0.00 0.00 33 1022.4
20221002173413 81 213 0.0 2.0 0.00 0.00 0.00 33 1022.5
20221002173012 80 70 0.0 3.0 0.00 0.00 0.00 35 1021.9
20221002172906 80 253 0.0 3.0 0.00 0.00 0.00 34 1022.5
20221002172358 79 72 1.0 5.0 0.00 0.00 0.00 36 1022.7
20221002171851 79 272 1.0 5.0 0.00 0.00 0.00 35 1022.7
20221002171529 79 233 1.0 4.0 0.00 0.00 0.00 34 1022.1
20221002171421 79 217 1.0 4.0 0.00 0.00 0.00 34 1022.7
20221002170849 79 203 0.0 6.0 0.00 0.00 0.00 36 1022.8
20221002170345 78 232 1.0 6.0 0.00 0.00 0.00 35 1022.8
20221002170002 78 105 2.0 6.0 0.00 0.00 0.00 35 1022.2
20221002165900 78 94 2.0 5.0 0.00 0.00 0.00 35 1022.8
20221002165352 78 85 1.0 3.0 0.00 0.00 0.00 40 1022.9
20221002164920 78 236 1.0 3.0 0.00 0.00 0.00 39 1023.1
20221002164554 77 271 0.0 3.0 0.00 0.00 0.00 40 1022.5
20221002164353 78 31 1.0 3.0 0.00 0.00 0.00 40 1023.1
20221002163846 77 274 0.0 3.0 0.00 0.00 0.00 41 1023.2
20221002163402 77 235 0.0 2.0 0.00 0.00 0.00 41 1023.2
20221002163055 76 103 0.0 2.0 0.00 0.00 0.00 41 1022.6
20221002162854 76 236 1.0 3.0 0.00 0.00 0.00 41 1023.2
20221002162406 76 160 1.0 3.0 0.00 0.00 0.00 43 1023.3
20221002161900 76 266 1.0 4.0 0.00 0.00 0.00 43 1023.3
20221002161550 75 215 1.0 4.0 0.00 0.00 0.00 42 1022.7
20221002161350 76 94 2.0 4.0 0.00 0.00 0.00 43 1023.3
20221002160924 76 174 1.0 3.0 0.00 0.00 0.00 44 1023.3
20221002160354 76 122 1.0 4.0 0.00 0.00 0.00 45 1023.2
20221002160050 75 117 1.0 4.0 0.00 0.00 0.00 43 1022.7
20221002155848 75 142 1.0 4.0 0.00 0.00 0.00 45 1023.3
20221002155343 75 103 1.0 3.0 0.00 0.00 0.00 45 1023.3
20221002154857 75 131 1.0 2.0 0.00 0.00 0.00 48 1023.3
20221002154557 74 119 0.0 2.0 0.00 0.00 0.00 48 1022.7
20221002154347 74 106 0.0 3.0 0.00 0.00 0.00 48 1023.2
20221002153900 74 136 1.0 3.0 0.00 0.00 0.00 50 1023.2
20221002153348 74 98 1.0 2.0 0.00 0.00 0.00 52 1023.3
20221002153018 73 118 0.0 2.0 0.00 0.00 0.00 52 1022.7
20221002152918 73 109 0.0 2.0 0.00 0.00 0.00 52 1023.2
20221002152349 73 109 0.0 1.0 0.00 0.00 0.00 52 1023.2
20221002151844 73 109 0.0 1.0 0.00 0.00 0.00 52 1023.2
20221002151558 72 117 0.0 1.0 0.00 0.00 0.00 52 1022.6
20221002151357 73 156 0.0 1.0 0.00 0.00 0.00 52 1023.2
20221002150846 72 114 0.0 2.0 0.00 0.00 0.00 54 1023.2
20221002150400 71 101 0.0 2.0 0.00 0.00 0.00 56 1023.2
20221002150053 71 89 0.0 2.0 0.00 0.00 0.00 56 1022.7
20221002145851 71 108 0.0 1.0 0.00 0.00 0.00 59 1023.2
20221002145344 70 111 0.0 2.0 0.00 0.00 0.00 60 1023.1
20221002144856 69 113 0.0 2.0 0.00 0.00 0.00 59 1023.1
20221002144513 69 101 0.0 0.0 0.00 0.00 0.00 60 1022.6
20221002144412 69 100 0.0 0.0 0.00 0.00 0.00 62 1023.0
20221002143359 68 101 0.0 1.0 0.00 0.00 0.00 62 1022.9
20221002143054 67 96 0.0 1.0 0.00 0.00 0.00 62 1022.4
20221002142853 67 95 0.0 0.0 0.00 0.00 0.00 64 1022.9
20221002142344 66 94 0.0 0.0 0.00 0.00 0.00 63 1022.8
20221002141919 66 90 0.0 0.0 0.00 0.00 0.00 65 1022.7
20221002141509 66 90 0.0 0.0 0.00 0.00 0.00 67 1022.2
20221002141410 66 90 0.0 0.0 0.00 0.00 0.00 66 1022.7
20221002140904 65 90 0.0 0.0 0.00 0.00 0.00 68 1022.6
20221002140354 64 91 0.0 0.0 0.00 0.00 0.00 70 1022.5
20221002140052 63 90 0.0 0.0 0.00 0.00 0.00 70 1021.9
20221002135849 63 90 0.0 0.0 0.00 0.00 0.00 73 1022.4
20221002135343 61 90 0.0 0.0 0.00 0.00 0.00 75 1022.4
20221002134857 60 90 0.0 0.0 0.00 0.00 0.00 78 1022.4
20221002134548 59 90 0.0 0.0 0.00 0.00 0.00 81 1021.8
20221002134348 58 91 0.0 0.0 0.00 0.00 0.00 86 1022.4
20221002133903 57 90 0.0 0.0 0.00 0.00 0.00 93 1022.3
20221002133355 55 91 0.0 0.0 0.00 0.00 0.00 96 1022.3
20221002133053 54 91 0.0 0.0 0.00 0.00 0.00 96 1021.6
20221002132847 54 90 0.0 0.0 0.00 0.00 0.00 96 1022.2
20221002132401 52 91 0.0 0.0 0.00 0.00 0.00 95 1022.0
20221002131913 51 90 0.0 0.0 0.00 0.00 0.00 95 1022.0
20221002131546 51 91 0.0 0.0 0.00 0.00 0.00 95 1021.3
20221002131345 51 91 0.0 0.0 0.00 0.00 0.00 95 1021.9
20221002130347 0 0.0 0.0 0.00 0.00 0.00 1021.8
20221002130058 0 0.0 0.0 0.00 0.00 0.00 1021.3
20221002125857 0 0.0 0.0 0.00 0.00 0.00 1021.7
20221002124545 0 0.0 0.0 0.00 0.00 0.00 1021.1
20221002124344 0 0.0 0.0 0.00 0.00 0.00 1021.7
20221002123915 0 0.0 0.0 0.00 0.00 0.00 1021.7
20221002123345 0 0.0 0.0 0.00 0.00 0.00 1021.6
20221002123036 0 0.0 0.0 0.00 0.00 0.00 1020.9
20221002121852 0 0.0 0.0 0.00 0.00 0.00 1021.3
20221002121548 0 0.0 0.0 0.00 0.00 0.00 1020.6
20221002121346 0 0.0 0.0 0.00 0.00 0.00 1021.2
20221002120902 0 0.0 0.0 0.00 0.00 0.00 1021.1
20221002120042 0 0.0 0.0 0.00 0.00 0.00 1020.5
20221002115402 0 0.0 0.0 0.00 0.00 0.00 1021.0
20221002114854 0 0.0 0.0 0.00 0.00 0.00 1021.0
20221002114549 0 0.0 0.0 0.00 0.00 0.00 1020.4
20221002114348 0 0.0 0.0 0.00 0.00 0.00 1020.9
20221002113053 0 0.0 0.0 0.00 0.00 0.00 1020.1
20221002112850 0 0.0 0.0 0.00 0.00 0.00 1020.8
20221002112402 0 0.0 0.0 0.00 0.00 0.00 1020.6
20221002111917 0 0.0 0.0 0.00 0.00 0.00 1020.6
20221002111526 0 0.0 0.0 0.00 0.00 0.00 1019.9
20221002111424 0 0.0 0.0 0.00 0.00 0.00 1020.6
20221002110410 0 0.0 0.0 0.00 0.00 0.00 1020.5
20221002110048 0 0.0 0.0 0.00 0.00 0.00 1019.8
20221002105843 0 0.0 0.0 0.00 0.00 0.00 1020.4
20221002105356 0 0.0 0.0 0.00 0.00 0.00 1020.4
20221002104852 0 0.0 0.0 0.00 0.00 0.00 1020.3
20221002104506 0 0.0 0.0 0.00 0.00 0.00 1019.7
20221002104407 0 0.0 0.0 0.00 0.00 0.00 1020.3
20221002103856 0 0.0 0.0 0.00 0.00 0.00 1020.3
20221002103409 0 0.0 0.0 0.00 0.00 0.00 1020.2
20221002103006 0 0.0 0.0 0.00 0.00 0.00 1019.6
20221002102843 0 0.0 0.0 0.00 0.00 0.00 1020.1
20221002101919 0 0.0 0.0 0.00 0.00 0.00 1019.9
20221002101608 0 0.0 0.0 0.00 0.00 0.00 1019.3
20221002101356 0 0.0 0.0 0.00 0.00 0.00 1019.8
20221002100850 0 0.0 0.0 0.00 0.00 0.00 1019.7
20221002100343 0 0.0 0.0 0.00 0.00 0.00 1019.7
20221002100037 0 0.0 0.0 0.00 0.00 0.00 1019.2
20221002064911 53 90 0.0 0.0 0.00 0.00 0.00 87 1018.9
20221002064521 53 91 0.0 0.0 0.00 0.00 0.00 87 1018.4
20221002064420 53 90 0.0 0.0 0.00 0.00 0.00 87 1018.9
20221002063913 53 91 0.0 0.0 0.00 0.00 0.00 86 1018.9
20221002063347 54 90 0.0 0.0 0.00 0.00 0.00 87 1018.9
20221002063002 53 91 0.0 0.0 0.00 0.00 0.00 86 1018.4
20221002062902 54 90 0.0 0.0 0.00 0.00 0.00 86 1018.9
20221002062353 54 91 0.0 0.0 0.00 0.00 0.00 86 1018.9
20221002061847 54 90 0.0 0.0 0.00 0.00 0.00 85 1018.9
20221002061505 53 91 0.0 0.0 0.00 0.00 0.00 85 1018.4
20221002061401 54 90 0.0 0.0 0.00 0.00 0.00 85 1018.9
20221002060912 54 90 0.0 0.0 0.00 0.00 0.00 84 1018.9
20221002060341 54 91 0.0 0.0 0.00 0.00 0.00 84 1018.9
20221002060115 54 90 0.0 0.0 0.00 0.00 0.00 84 1018.4
20221002055857 54 90 0.0 0.0 0.00 0.00 0.00 84 1018.9
20221002055348 54 90 0.0 0.0 0.00 0.00 0.00 84 1018.9
20221002054844 54 90 0.0 0.0 0.00 0.00 0.00 83 1018.9
20221002054617 54 91 0.0 0.0 0.00 0.00 0.00 83 1018.4
20221002054358 55 90 0.0 0.0 0.00 0.00 0.00 83 1018.9
20221002053853 55 90 0.0 0.0 0.00 0.00 0.00 82 1018.9
20221002053347 55 90 0.0 0.0 0.00 0.00 0.00 81 1019.0
20221002053044 55 90 0.0 0.0 0.00 0.00 0.00 81 1018.4
20221002052843 55 90 0.0 0.0 0.00 0.00 0.00 82 1019.0
20221002052357 55 91 0.0 0.0 0.00 0.00 0.00 82 1018.9
20221002051849 55 90 0.0 0.0 0.00 0.00 0.00 82 1018.9
20221002051546 55 90 0.0 0.0 0.00 0.00 0.00 82 1018.4
20221002051346 55 91 0.0 0.0 0.00 0.00 0.00 82 1018.9
20221002050902 55 90 0.0 0.0 0.00 0.00 0.00 82 1018.9
20221002050353 56 90 0.0 0.0 0.00 0.00 0.00 81 1018.9
20221002050052 55 91 0.0 0.0 0.00 0.00 0.00 81 1018.4
20221002045849 56 90 0.0 0.0 0.00 0.00 0.00 80 1018.9
20221002045344 56 90 0.0 0.0 0.00 0.00 0.00 80 1018.9
20221002044901 56 91 0.0 0.0 0.00 0.00 0.00 79 1018.9
20221002044557 55 91 0.0 0.0 0.00 0.00 0.00 78 1018.3
20221002044355 56 90 0.0 0.0 0.00 0.00 0.00 78 1018.9
20221002043851 56 91 0.0 0.0 0.00 0.00 0.00 77 1018.8
20221002043345 56 92 0.0 0.0 0.00 0.00 0.00 76 1018.8
20221002043040 56 91 0.0 0.0 0.00 0.00 0.00 75 1018.3
20221002042840 57 92 0.0 0.0 0.00 0.00 0.00 75 1018.8
20221002042350 57 91 0.0 0.0 0.00 0.00 0.00 74 1018.7
20221002041846 57 91 0.0 0.0 0.00 0.00 0.00 74 1018.7
20221002041522 57 91 0.0 0.0 0.00 0.00 0.00 74 1018.2
20221002041421 57 91 0.0 0.0 0.00 0.00 0.00 75 1018.7
20221002040853 57 92 0.0 0.0 0.00 0.00 0.00 75 1018.7
20221002040349 57 91 0.0 0.0 0.00 0.00 0.00 74 1018.7
20221002040006 57 91 0.0 0.0 0.00 0.00 0.00 74 1018.2
20221002035906 57 91 0.0 0.0 0.00 0.00 0.00 73 1018.7
20221002035401 58 91 0.0 0.0 0.00 0.00 0.00 72 1018.7
20221002034909 58 91 0.0 0.0 0.00 0.00 0.00 72 1018.6
20221002034547 57 91 0.0 0.0 0.00 0.00 0.00 72 1018.1
20221002034343 58 92 0.0 0.0 0.00 0.00 0.00 71 1018.6
20221002033859 58 92 0.0 0.0 0.00 0.00 0.00 70 1018.6
20221002033353 58 91 0.0 0.0 0.00 0.00 0.00 69 1018.6
20221002033049 58 91 0.0 0.0 0.00 0.00 0.00 68 1017.9
20221002032847 58 91 0.0 0.0 0.00 0.00 0.00 68 1018.5
20221002032401 58 91 0.0 0.0 0.00 0.00 0.00 68 1018.5
20221002031856 59 91 0.0 0.0 0.00 0.00 0.00 67 1018.4
20221002031514 58 92 0.0 0.0 0.00 0.00 0.00 68 1017.8
20221002031410 59 92 0.0 0.0 0.00 0.00 0.00 68 1018.3
20221002030921 59 91 0.0 0.0 0.00 0.00 0.00 67 1018.4
20221002030355 59 91 0.0 0.0 0.00 0.00 0.00 67 1018.3
20221002030049 59 91 0.0 0.0 0.00 0.00 0.00 66 1017.7
20221002025848 59 91 0.0 0.0 0.00 0.00 0.00 65 1018.3
20221002025343 59 92 0.0 0.0 0.00 0.00 0.00 64 1018.3
20221002024859 59 91 0.0 0.0 0.00 0.00 0.00 64 1018.2
20221002024554 59 92 0.0 0.0 0.00 0.00 0.00 64 1017.6
20221002024353 60 91 0.0 0.0 0.00 0.00 0.00 64 1018.2
20221002023848 60 92 0.0 0.0 0.00 0.00 0.00 63 1018.1
20221002023343 60 92 0.0 0.0 0.00 0.00 0.00 63 1018.0
20221002023057 60 91 0.0 0.0 0.00 0.00 0.00 62 1017.5
20221002022349 60 91 0.0 0.0 0.00 0.00 0.00 62 1017.9
20221002021845 61 91 0.0 0.0 0.00 0.00 0.00 62 1017.8
20221002021541 60 91 0.0 0.0 0.00 0.00 0.00 62 1017.3
20221002021340 61 91 0.0 0.0 0.00 0.00 0.00 62 1017.8
20221002020856 61 91 0.0 0.0 0.00 0.00 0.00 62 1017.7
20221002020350 61 91 0.0 0.0 0.00 0.00 0.00 61 1017.6
20221002020049 61 91 0.0 0.0 0.00 0.00 0.00 60 1017.0
20221002015847 62 91 0.0 0.0 0.00 0.00 0.00 59 1017.5
20221002015343 62 91 0.0 0.0 0.00 0.00 0.00 59 1017.5
20221002015047 62 91 0.0 0.0 0.00 0.00 0.00 58 1017.5
20221002014402 63 92 0.0 0.0 0.00 0.00 0.00 58 1017.4
20221002012810 64 91 0.0 0.0 0.00 0.00 0.00 55 1017.1
20221002011842 64 92 0.0 0.0 0.00 0.00 0.00 54 1017.1
20221002011514 64 91 0.0 0.0 0.00 0.00 0.00 53 1016.5
20221002011414 65 92 0.0 0.0 0.00 0.00 0.00 54 1017.1
20221002010846 65 92 0.0 0.0 0.00 0.00 0.00 54 1017.0
20221002010052 65 92 0.0 0.0 0.00 0.00 0.00 52 1016.3
20221002005850 66 91 0.0 0.0 0.00 0.00 0.00 51 1016.9
20221002005406 66 91 0.0 0.0 0.00 0.00 0.00 51 1016.9
20221002004855 67 91 0.0 0.0 0.00 0.00 0.00 51 1016.9
20221002004556 67 92 0.0 0.0 0.00 0.00 0.00 51 1016.3
20221002004346 67 91 0.0 0.0 0.00 0.00 0.00 50 1016.9
20221002003842 68 91 0.0 0.0 0.00 0.00 0.00 48 1017.0
20221002003356 69 91 0.0 0.0 0.00 0.00 0.00 47 1016.9
20221002003011 69 92 0.0 0.0 0.00 0.00 0.00 48 1016.3
20221002002910 69 92 0.0 0.0 0.00 0.00 0.00 46 1016.9
20221002002346 70 92 0.0 0.0 0.00 0.00 0.00 45 1016.9
20221002001859 71 91 0.0 0.0 0.00 0.00 0.00 43 1016.8
20221002001556 71 91 0.0 0.0 0.00 0.00 0.00 44 1016.2
20221002001355 72 92 0.0 0.0 0.00 0.00 0.00 41 1016.7
20221002000850 73 92 0.0 0.0 0.00 0.00 0.00 40 1016.8
20221002000342 74 91 0.0 0.0 0.00 0.00 0.00 37 1016.8
20221002000059 74 91 0.0 0.0 0.00 0.00 0.00 36 1016.2
20221001235856 75 92 0.0 0.0 0.00 0.00 0.00 35 1016.8
20221001234903 76 235 0.0 0.0 0.00 0.00 0.00 32 1016.7
20221001234539 76 235 0.0 1.0 0.00 0.00 0.00 31 1016.1
20221001234350 77 235 0.0 1.0 0.00 0.00 0.00 32 1016.8
20221001233853 77 235 0.0 1.0 0.00 0.00 0.00 31 1016.8
20221001233346 77 236 0.0 2.0 0.00 0.00 0.00 32 1016.7
20221001233042 77 237 0.0 2.0 0.00 0.00 0.00 30 1016.1
20221001232841 78 118 0.0 3.0 0.00 0.00 0.00 30 1016.7
20221001232352 78 191 0.0 3.0 0.00 0.00 0.00 30 1016.6